Hourly Data Report for February 12, 2003

TORONTO CITY
ONTARIO

43°40'00.000" N
79°24'00.000" W
112.50 m
6158355
71508
XTO

Download Data

Hourly Data (February 2003)
Hourly Data Report for February 12, 2003
TIME
LST
Temp Definition
°C
Dew Point Definition
°C
Rel Hum Definition
%
Precip. Amount Definition
mm

Wind Dir Definition
10's deg

Wind Spd Definition
km/h
Visibility Definition
km
Stn Press Definition
kPa
Hmdx Definition


Wind Chill Definition


Weather Definition


00:00 -5.9 -10.6 69     0 LegendMM 98.54     LegendNANA
01:00
02:00 -5.9 -9.4 76     0 LegendMM 98.26     LegendNANA
03:00 -5.8 -9.4 76     0 LegendMM 98.32     LegendNANA
04:00 -6.7 -12.1 65     0 LegendMM 98.56     LegendNANA
05:00 -8.0 -14.7 59     0 LegendMM 98.83     LegendNANA
06:00 -9.2 -16.0 58     0 LegendMM 99.02     LegendNANA
07:00 -9.6 -15.8 61     0 LegendMM 99.21     LegendNANA
08:00 -10.1 -13.6 76     0 LegendMM 99.38     LegendNANA
09:00 -9.3 -18.1 49     0 LegendMM 99.50     LegendNANA
10:00 -8.6 -17.7 48     0 LegendMM 99.55     LegendNANA
11:00
12:00 -8.0 -18.8 42     0 LegendMM 99.63     LegendNANA
13:00 -7.9 -18.7 42     0 LegendMM 99.64     LegendNANA
14:00 -8.9 -19.3 43     0 LegendMM 99.67     LegendNANA
15:00 -8.7 -20.0 40     0 LegendMM 99.68     LegendNANA
16:00 -9.1 -16.8 54     0 LegendMM 99.74     LegendNANA
17:00 -9.8 -17.2 55     0 LegendMM 99.78     LegendNANA
18:00 -10.3 -18.8 50     0 LegendMM 99.81     LegendNANA
19:00 -10.6 -17.4 57     0 LegendMM 99.85     LegendNANA
20:00 -10.8 -16.0 65     0 LegendMM 99.85     LegendNANA
21:00 -10.6 -16.0 64     0 LegendMM 99.85     LegendNANA
22:00 -10.7 -15.7 67     0 LegendMM 99.85     LegendNANA
23:00 -10.9 -15.7 68     0 LegendMM 99.85     LegendNANA

Notes on Data Quality.

Legend

  • E = Estimated
  • M = Missing
  • NA = Not Available*
  • [empty] = Indicates an unobserved value
Date modified: